Time,TemperatureF,DewpointF,PressureIn,WindDirection,WindDirectionDegrees,WindSpeedMPH,WindSpeedGustMPH,Humidity,HourlyPrecipIn,Conditions,Clouds,dailyrainin,SoftwareType,DateUTC
2013-03-14 00:02:00,18.0,9.0,-100.00,South,175,0.0,1.0,69,-99.99,,,-99.99,,2013-03-14 05:02:00,
2013-03-14 00:12:00,18.0,9.0,-100.00,South,175,0.0,1.0,69,-99.99,,,-99.99,,2013-03-14 05:12:00,
2013-03-14 00:22:00,18.0,9.0,-100.00,South,175,0.0,1.0,69,-99.99,,,-99.99,,2013-03-14 05:22:00,
2013-03-14 00:53:00,17.0,10.0,-100.00,ESE,120,0.0,1.0,75,-99.99,,,-99.99,,2013-03-14 05:53:00,
2013-03-14 01:02:00,17.0,10.0,-100.00,ESE,120,0.0,1.0,75,-99.99,,,-99.99,,2013-03-14 06:02:00,
2013-03-14 01:12:00,17.0,10.0,-100.00,ESE,120,0.0,1.0,75,-99.99,,,-99.99,,2013-03-14 06:12:00,
2013-03-14 01:22:00,17.0,10.0,-100.00,ESE,120,0.0,1.0,75,-99.99,,,-99.99,,2013-03-14 06:22:00,
2013-03-14 01:30:00,16.0,11.0,-100.00,SE,125,1.0,1.0,80,-99.99,,,-99.99,,2013-03-14 06:30:00,
2013-03-14 01:52:00,16.0,11.0,-100.00,SE,125,1.0,1.0,80,-99.99,,,-99.99,,2013-03-14 06:52:00,
2013-03-14 02:02:00,16.0,11.0,-100.00,SE,125,1.0,1.0,80,-99.99,,,-99.99,,2013-03-14 07:02:00,
2013-03-14 02:12:00,16.0,11.0,-100.00,SE,125,1.0,1.0,80,-99.99,,,-99.99,,2013-03-14 07:12:00,
2013-03-14 02:22:00,16.0,11.0,-100.00,SE,125,1.0,1.0,80,-99.99,,,-99.99,,2013-03-14 07:22:00,
2013-03-14 02:52:00,16.0,12.0,-100.00,ESE,115,0.0,1.0,83,-99.99,,,-99.99,,2013-03-14 07:52:00,
2013-03-14 03:02:00,16.0,12.0,-100.00,ESE,115,0.0,1.0,83,-99.99,,,-99.99,,2013-03-14 08:02:00,
2013-03-14 03:12:00,16.0,12.0,-100.00,ESE,115,0.0,1.0,83,-99.99,,,-99.99,,2013-03-14 08:12:00,
2013-03-14 03:22:00,16.0,12.0,-100.00,ESE,115,0.0,1.0,83,-99.99,,,-99.99,,2013-03-14 08:22:00,
2013-03-14 03:52:00,16.0,12.0,-100.00,SSE,165,1.0,3.0,84,-99.99,,,-99.99,,2013-03-14 08:52:00,
2013-03-14 04:01:00,16.0,12.0,-100.00,SSE,165,1.0,3.0,84,-99.99,,,-99.99,,2013-03-14 09:01:00,
2013-03-14 04:12:00,16.0,12.0,-100.00,SSE,165,1.0,3.0,84,-99.99,,,-99.99,,2013-03-14 09:12:00,
2013-03-14 04:22:00,16.0,12.0,-100.00,SSE,165,1.0,3.0,84,-99.99,,,-99.99,,2013-03-14 09:22:00,
2013-03-14 04:52:00,16.0,12.0,-100.00,SE,125,4.0,6.0,85,-99.99,,,-99.99,,2013-03-14 09:52:00,
2013-03-14 05:02:00,16.0,12.0,-100.00,SE,125,4.0,6.0,85,-99.99,,,-99.99,,2013-03-14 10:02:00,
2013-03-14 05:12:00,16.0,12.0,-100.00,SE,125,4.0,6.0,85,-99.99,,,-99.99,,2013-03-14 10:12:00,
2013-03-14 05:22:00,16.0,12.0,-100.00,SE,125,4.0,6.0,85,-99.99,,,-99.99,,2013-03-14 10:22:00,
2013-03-14 05:52:00,17.0,13.0,-100.00,SE,130,2.0,4.0,84,-99.99,,,-99.99,,2013-03-14 10:52:00,
2013-03-14 06:02:00,17.0,13.0,-100.00,SE,130,2.0,4.0,84,-99.99,,,-99.99,,2013-03-14 11:02:00,
2013-03-14 06:12:00,17.0,13.0,-100.00,SE,130,2.0,4.0,84,-99.99,,,-99.99,,2013-03-14 11:12:00,
2013-03-14 06:22:00,17.0,13.0,-100.00,SE,130,2.0,4.0,84,-99.99,,,-99.99,,2013-03-14 11:22:00,
2013-03-14 06:53:00,19.0,15.0,-100.00,South,170,2.0,4.0,84,-99.99,,,-99.99,,2013-03-14 11:53:00,
2013-03-14 07:02:00,19.0,15.0,-100.00,South,170,2.0,4.0,84,-99.99,,,-99.99,,2013-03-14 12:02:00,
2013-03-14 07:12:00,19.0,15.0,-100.00,South,170,2.0,4.0,84,-99.99,,,-99.99,,2013-03-14 12:12:00,
2013-03-14 07:22:00,19.0,15.0,-100.00,South,170,2.0,4.0,84,-99.99,,,-99.99,,2013-03-14 12:22:00,
2013-03-14 07:52:00,20.0,17.0,-100.00,SE,130,3.0,6.0,88,-99.99,,,-99.99,,2013-03-14 12:52:00,
2013-03-14 08:02:00,20.0,17.0,-100.00,SE,130,3.0,6.0,88,-99.99,,,-99.99,,2013-03-14 13:02:00,
2013-03-14 08:12:00,20.0,17.0,-100.00,SE,130,3.0,6.0,88,-99.99,,,-99.99,,2013-03-14 13:12:00,
2013-03-14 08:22:00,20.0,17.0,-100.00,SE,130,3.0,6.0,88,-99.99,,,-99.99,,2013-03-14 13:22:00,
2013-03-14 08:52:00,21.0,19.0,-100.00,SE,135,4.0,7.0,93,-99.99,,,-99.99,,2013-03-14 13:52:00,
2013-03-14 09:02:00,21.0,19.0,-100.00,SE,135,4.0,7.0,93,-99.99,,,-99.99,,2013-03-14 14:02:00,
2013-03-14 09:12:00,21.0,19.0,-100.00,SE,135,4.0,7.0,93,-99.99,,,-99.99,,2013-03-14 14:12:00,
2013-03-14 09:22:00,21.0,19.0,-100.00,SE,135,4.0,7.0,93,-99.99,,,-99.99,,2013-03-14 14:22:00,
2013-03-14 09:53:00,23.0,21.0,-100.00,SE,145,2.0,4.0,92,-99.99,,,-99.99,,2013-03-14 14:53:00,
2013-03-14 10:02:00,23.0,21.0,-100.00,SE,145,2.0,4.0,92,-99.99,,,-99.99,,2013-03-14 15:02:00,
2013-03-14 10:12:00,23.0,21.0,-100.00,SE,145,2.0,4.0,92,-99.99,,,-99.99,,2013-03-14 15:12:00,
2013-03-14 10:22:00,23.0,21.0,-100.00,SE,145,2.0,4.0,92,-99.99,,,-99.99,,2013-03-14 15:22:00,
2013-03-14 10:31:00,25.0,22.0,-100.00,SE,130,4.0,7.0,88,-99.99,,,-99.99,,2013-03-14 15:31:00,
2013-03-14 10:52:00,25.0,22.0,-100.00,SE,130,4.0,7.0,88,-99.99,,,-99.99,,2013-03-14 15:52:00,
2013-03-14 11:03:00,25.0,22.0,-100.00,SE,130,4.0,7.0,88,-99.99,,,-99.99,,2013-03-14 16:03:00,
2013-03-14 11:12:00,25.0,22.0,-100.00,SE,130,4.0,7.0,88,-99.99,,,-99.99,,2013-03-14 16:12:00,
2013-03-14 11:22:00,25.0,22.0,-100.00,SE,130,4.0,7.0,88,-99.99,,,-99.99,,2013-03-14 16:22:00,
2013-03-14 11:52:00,27.0,23.0,-100.00,SE,135,4.0,10.0,85,-99.99,,,-99.99,,2013-03-14 16:52:00,
2013-03-14 12:02:00,27.0,23.0,-100.00,SE,135,4.0,10.0,85,-99.99,,,-99.99,,2013-03-14 17:02:00,
2013-03-14 12:12:00,27.0,23.0,-100.00,SE,135,4.0,10.0,85,-99.99,,,-99.99,,2013-03-14 17:12:00,
2013-03-14 12:23:00,27.0,23.0,-100.00,SE,135,4.0,10.0,85,-99.99,,,-99.99,,2013-03-14 17:23:00,
2013-03-14 12:53:00,30.0,24.0,-100.00,SSE,165,4.0,9.0,80,-99.99,,,-99.99,,2013-03-14 17:53:00,
2013-03-14 13:03:00,30.0,24.0,-100.00,SSE,165,4.0,9.0,80,-99.99,,,-99.99,,2013-03-14 18:03:00,
2013-03-14 13:12:00,30.0,24.0,-100.00,SSE,165,4.0,9.0,80,-99.99,,,-99.99,,2013-03-14 18:12:00,
2013-03-14 13:22:00,30.0,24.0,-100.00,SSE,165,4.0,9.0,80,-99.99,,,-99.99,,2013-03-14 18:22:00,
2013-03-14 13:52:00,34.0,26.0,-100.00,SE,140,6.0,10.0,72,-99.99,,,-99.99,,2013-03-14 18:52:00,
2013-03-14 14:03:00,34.0,26.0,-100.00,SE,140,6.0,10.0,72,-99.99,,,-99.99,,2013-03-14 19:03:00,
2013-03-14 14:12:00,34.0,26.0,-100.00,SE,140,6.0,10.0,72,-99.99,,,-99.99,,2013-03-14 19:12:00,
2013-03-14 14:22:00,34.0,26.0,-100.00,SE,140,6.0,10.0,72,-99.99,,,-99.99,,2013-03-14 19:22:00,
2013-03-14 14:52:00,37.0,26.0,-100.00,South,180,2.0,6.0,65,-99.99,,,-99.99,,2013-03-14 19:52:00,
2013-03-14 15:02:00,37.0,26.0,-100.00,South,180,2.0,6.0,65,-99.99,,,-99.99,,2013-03-14 20:02:00,
2013-03-14 15:12:00,37.0,26.0,-100.00,South,180,2.0,6.0,65,-99.99,,,-99.99,,2013-03-14 20:12:00,
2013-03-14 15:22:00,37.0,26.0,-100.00,South,180,2.0,6.0,65,-99.99,,,-99.99,,2013-03-14 20:22:00,
2013-03-14 15:52:00,39.0,27.0,-100.00,SSE,155,7.0,11.0,64,-99.99,,,-99.99,,2013-03-14 20:52:00,
2013-03-14 16:02:00,39.0,27.0,-100.00,SSE,155,7.0,11.0,64,-99.99,,,-99.99,,2013-03-14 21:02:00,
2013-03-14 16:12:00,39.0,27.0,-100.00,SSE,155,7.0,11.0,64,-99.99,,,-99.99,,2013-03-14 21:12:00,
2013-03-14 16:22:00,39.0,27.0,-100.00,SSE,155,7.0,11.0,64,-99.99,,,-99.99,,2013-03-14 21:22:00,
2013-03-14 16:53:00,38.0,27.0,-100.00,South,180,6.0,11.0,64,-99.99,,,-99.99,,2013-03-14 21:53:00,
2013-03-14 17:03:00,38.0,27.0,-100.00,South,180,6.0,11.0,64,-99.99,,,-99.99,,2013-03-14 22:03:00,
2013-03-14 17:13:00,38.0,27.0,-100.00,South,180,6.0,11.0,64,-99.99,,,-99.99,,2013-03-14 22:13:00,
2013-03-14 17:23:00,38.0,27.0,-100.00,South,180,6.0,11.0,64,-99.99,,,-99.99,,2013-03-14 22:23:00,
2013-03-14 17:52:00,37.0,27.0,-100.00,SSW,195,5.0,8.0,67,-99.99,,,-99.99,,2013-03-14 22:52:00,
2013-03-14 18:02:00,37.0,27.0,-100.00,SSW,195,5.0,8.0,67,-99.99,,,-99.99,,2013-03-14 23:02:00,
2013-03-14 18:12:00,37.0,27.0,-100.00,SSW,195,5.0,8.0,67,-99.99,,,-99.99,,2013-03-14 23:12:00,
2013-03-14 18:22:00,37.0,27.0,-100.00,SSW,195,5.0,8.0,67,-99.99,,,-99.99,,2013-03-14 23:22:00,
2013-03-14 18:31:00,36.0,27.0,-100.00,South,175,4.0,8.0,69,-99.99,,,-99.99,,2013-03-14 23:31:00,
2013-03-14 18:53:00,36.0,27.0,-100.00,South,175,4.0,8.0,69,-99.99,,,-99.99,,2013-03-14 23:53:00,
2013-03-14 19:02:00,36.0,27.0,-100.00,South,175,4.0,8.0,69,-99.99,,,-99.99,,2013-03-15 00:02:00,
2013-03-14 19:12:00,36.0,27.0,-100.00,South,175,4.0,8.0,69,-99.99,,,-99.99,,2013-03-15 00:12:00,
2013-03-14 19:22:00,36.0,27.0,-100.00,South,175,4.0,8.0,69,-99.99,,,-99.99,,2013-03-15 00:22:00,
2013-03-14 19:52:00,33.0,26.0,-100.00,WSW,240,2.0,3.0,74,-99.99,,,-99.99,,2013-03-15 00:52:00,
2013-03-14 20:02:00,33.0,26.0,-100.00,WSW,240,2.0,3.0,74,-99.99,,,-99.99,,2013-03-15 01:02:00,
2013-03-14 20:12:00,33.0,26.0,-100.00,WSW,240,2.0,3.0,74,-99.99,,,-99.99,,2013-03-15 01:12:00,
2013-03-14 20:22:00,33.0,26.0,-100.00,WSW,240,2.0,3.0,74,-99.99,,,-99.99,,2013-03-15 01:22:00,
2013-03-14 20:31:00,31.0,26.0,-100.00,SSW,210,1.0,4.0,83,-99.99,,,-99.99,,2013-03-15 01:31:00,
2013-03-14 20:52:00,31.0,26.0,-100.00,SSW,210,1.0,4.0,83,-99.99,,,-99.99,,2013-03-15 01:52:00,
2013-03-14 21:02:00,31.0,26.0,-100.00,SSW,210,1.0,4.0,83,-99.99,,,-99.99,,2013-03-15 02:02:00,
2013-03-14 21:12:00,31.0,26.0,-100.00,SSW,210,1.0,4.0,83,-99.99,,,-99.99,,2013-03-15 02:12:00,
2013-03-14 21:22:00,31.0,26.0,-100.00,SSW,210,1.0,4.0,83,-99.99,,,-99.99,,2013-03-15 02:22:00,
2013-03-14 21:30:00,31.0,27.0,-100.00,SSW,205,2.0,5.0,83,-99.99,,,-99.99,,2013-03-15 02:30:00,
2013-03-14 21:52:00,31.0,27.0,-100.00,SSW,205,2.0,5.0,83,-99.99,,,-99.99,,2013-03-15 02:52:00,
2013-03-14 22:02:00,31.0,27.0,-100.00,SSW,205,2.0,5.0,83,-99.99,,,-99.99,,2013-03-15 03:02:00,
2013-03-14 22:12:00,31.0,27.0,-100.00,SSW,205,2.0,5.0,83,-99.99,,,-99.99,,2013-03-15 03:12:00,
2013-03-14 22:22:00,31.0,27.0,-100.00,SSW,205,2.0,5.0,83,-99.99,,,-99.99,,2013-03-15 03:22:00,
2013-03-14 22:53:00,31.0,26.0,-100.00,SSW,205,3.0,7.0,83,-99.99,,,-99.99,,2013-03-15 03:53:00,
2013-03-14 23:03:00,31.0,26.0,-100.00,SSW,205,3.0,7.0,83,-99.99,,,-99.99,,2013-03-15 04:03:00,
2013-03-14 23:12:00,31.0,26.0,-100.00,SSW,205,3.0,7.0,83,-99.99,,,-99.99,,2013-03-15 04:12:00,
2013-03-14 23:23:00,31.0,26.0,-100.00,SSW,205,3.0,7.0,83,-99.99,,,-99.99,,2013-03-15 04:23:00,